[[{"header":{"parameterUnit":"m.s-1","parameterCategory":1,"la1":30.2991,"la2":30.254,"lo1":-89.0895,"lo2":-89.0444,"dy":0.0017,"dx":0.0017,"nx":28,"ny":28,"refTime":"2023-07-31T21:00:00:Z","depth":0,"parameterNumber":2,"parameterNumberName":"U-component_of_WINDS"},"data":[0,0,0,0,0,0,0,0,0,0,0,0,0,0,0,0,0,0,0,0,0,0,0,0,0,0,0,0,0,0,0,0,0,0,0,0,0,0,0,0,0,0,0,0,0,0,0,0,0,0,0,0,0,0,0,0,0,0,3.5619,3.5619,0,3.5676,3.5677,3.5678,3.5598,3.5595,3.5593,3.559,3.5649,3.5653,3.5657,0,0,0,0,0,0,0,0,0,0,0,0,0,3.544,3.5444,3.5618,3.5619,3.562,3.5676,3.5677,3.5678,3.5599,3.5595,3.5592,3.5589,3.5647,3.5652,3.5657,0,0,0,0,0,0,0,0,0,0,0,0,0,3.551,3.5445,3.5618,3.5587,3.5585,3.5676,3.5677,3.5678,3.56,3.5595,3.5591,3.5587,3.5646,3.5652,3.5658,3.5782,0,0,3.5677,3.568,0,0,0,0,0,0,0,0,3.5506,3.5517,3.5591,3.559,3.5587,3.5626,3.5636,3.5713,3.5601,3.5594,3.559,3.5585,3.5644,3.5651,3.5671,3.5785,3.5787,3.5678,3.5682,3.5684,3.5686,0,0,0,0,0,0,0,3.5501,3.5514,3.5641,3.5592,3.559,3.5571,3.5576,3.565,3.5642,3.5594,3.5589,3.5597,3.5643,3.5665,3.5671,3.5788,3.5678,3.5683,3.5687,3.569,3.6008,3.6012,0,0,0,0,0,0,3.55,3.551,3.5639,3.5643,3.5535,3.5577,3.5583,3.5618,3.5641,3.5641,3.56,3.5593,3.5656,3.5664,3.5673,3.582,3.5684,3.569,3.5694,3.6003,3.6009,3.6014,0,0,0,0,0,0,3.5497,3.5513,3.5637,3.5575,3.559,3.5585,3.5624,3.5621,3.5643,3.5646,3.5644,3.5624,3.5653,3.5664,3.5756,3.5821,3.5693,3.5699,3.5998,3.6005,3.6011,3.6116,0,0,0,0,0,0,3.5492,3.5512,3.5559,3.5577,3.5593,3.5719,3.5628,3.5625,3.5654,3.5645,3.5668,3.5668,3.5651,3.5747,3.5762,3.5828,3.5704,3.5992,3.6001,3.6009,3.6106,3.6125,3.6142,0,0,0,0,0,3.5486,3.5585,3.5561,3.5577,3.5652,3.5723,3.5732,3.5711,3.566,3.5707,3.5709,3.5667,3.5812,3.5757,3.5773,3.5842,3.5987,3.5998,3.6008,3.6098,3.6122,3.6141,0,0,0,0,0,0,3.5574,3.5587,3.5561,3.5669,3.5695,3.5709,3.5768,3.5736,3.5777,3.5767,3.5738,3.5744,3.5842,3.5851,3.5789,3.5964,3.5891,3.5906,3.5954,3.5976,3.5994,3.5989,3.5709,0,0,0,0,0,3.5606,3.5663,3.5671,3.5766,3.5781,3.5773,3.5802,3.5784,3.581,3.5821,3.5829,3.5856,3.5908,3.5943,3.599,3.6108,3.6112,3.6163,3.6181,3.6195,3.6208,3.6272,3.6295,3.6048,3.6048,3.6048,0,0,3.5673,3.5687,3.5724,3.5784,3.5802,3.5862,3.5782,3.5848,3.5892,3.5831,3.5918,3.5925,3.5954,3.6059,3.6106,3.607,3.6277,3.6209,3.622,3.6225,3.6285,3.6308,3.6329,3.6055,3.6054,3.6053,0,0,3.5825,3.5841,3.5922,3.5943,3.5972,3.5966,3.5986,3.6005,3.6008,3.6095,3.6051,3.6103,3.6192,3.6215,3.6238,3.6401,3.6364,3.6417,3.6509,3.6572,3.6591,3.6608,3.6667,3.6688,3.643,3.643,3.643,0,3.5904,3.5992,3.5968,3.6038,3.6066,3.6014,3.6096,3.6117,3.6161,3.6181,3.614,3.6252,3.6268,3.6378,3.6418,3.6438,3.646,3.6414,3.659,3.6607,3.6623,3.6678,3.67,3.6436,3.6436,3.6435,3.6434,0,3.6088,3.615,3.6212,3.6256,3.6291,3.6367,3.6355,3.6393,3.6372,3.6371,3.6461,3.6478,3.6529,3.6554,3.6533,3.6662,3.6639,3.6595,3.6521,3.6653,3.6705,3.6726,3.6445,3.6443,3.6441,3.644,0,0,3.6296,3.6327,3.635,3.637,3.64,3.6447,3.6521,3.6571,3.6605,3.6637,3.6699,3.6777,3.6737,3.6763,3.6745,3.68,3.6929,3.6749,3.675,3.6782,3.7072,3.7105,3.713,3.6905,3.6909,3.6912,3.707,0,3.6448,3.6576,3.6558,3.6681,3.6738,3.6691,3.6755,3.6781,3.6782,3.6831,3.6832,3.6888,3.6831,3.6847,3.6899,3.6902,3.6987,3.6891,3.6962,3.6965,3.6956,3.7157,3.7192,3.734,3.709,3.7094,3.7096,0,3.6643,3.6683,3.6812,3.6834,3.6857,3.6916,3.6961,3.7008,3.7036,3.7034,3.7064,3.7037,3.7112,3.7038,3.714,3.7076,3.7104,3.711,3.7116,3.7121,3.7038,3.7168,3.7386,3.7409,3.7128,3.7125,3.7123,0,3.6782,3.6868,3.6957,3.6975,3.7003,3.7045,3.7059,3.7083,3.7114,3.7154,3.7175,3.7222,3.7249,3.7287,3.7273,3.7221,3.7379,3.7304,3.7379,3.738,3.7414,3.7412,3.764,3.7433,3.7433,3.7432,3.7432,0,3.6954,3.7035,3.702,3.7075,3.7165,3.7143,3.7232,3.724,3.7262,3.7318,3.728,3.7333,3.7312,3.7364,3.7354,3.7441,3.7453,3.7453,3.7449,3.7456,3.7457,3.7474,3.7464,3.7438,3.7437,3.7436,3.7435,0,3.7124,3.7117,3.7211,3.723,3.7237,3.7302,3.7318,3.737,3.7369,3.744,3.7455,3.7453,3.7513,3.7504,3.7569,3.7563,3.7671,3.7655,3.7662,3.7658,3.7734,3.7727,3.7981,3.8013,3.7786,3.7788,3.779,0,3.7234,3.7295,3.7321,3.7356,3.7373,3.7429,3.7461,3.7443,3.7479,3.7516,3.7564,3.762,3.7663,3.7761,3.7766,3.7816,3.7801,3.7886,3.7808,3.7814,3.7802,3.7799,3.7805,3.7902,3.7904,3.7906,3.7908,0,3.743,3.7424,3.7472,3.7521,3.7561,3.7598,3.7631,3.7662,3.7646,3.7688,3.7749,3.7783,3.7851,3.7907,3.7955,3.7969,3.7937,3.7933,3.7953,3.7961,3.7962,3.7963,3.7704,3.7927,3.7925,3.7924,3.7923,3.7922,3.7574,3.7626,3.7653,3.7709,3.7732,3.7764,3.7814,3.782,3.787,3.7924,3.791,3.7979,3.8007,3.8067,3.8087,3.814,3.8109,3.8138,3.8145,3.8153,3.8162,3.7954,3.8149,3.8149,3.8148,3.8148,3.8147,0,3.7768,3.7783,3.7835,3.7883,3.7927,3.7893,3.7929,3.7968,3.8029,3.8058,3.8102,3.8172,3.8227,3.8237,3.8289,3.8331,3.8317,3.8345,3.8342,3.8346,3.8187,3.8164,3.8355,3.8355,3.8355,3.8355,3.8355,3.8355,3.7874,3.7962,3.796,3.8059,3.8073,3.8141,3.8164,3.8194,3.8217,3.8297,3.8343,3.8349,3.8371,3.8424,3.8474,3.8475,3.8496,3.853,3.8526,3.8377,3.8357,3.8337,3.8315,3.8535,3.8535,3.868,3.8681,3.8682]},{"header":{"parameterUnit":"m.s-1","parameterCategory":1,"la1":30.2991,"la2":30.254,"lo1":-89.0895,"lo2":-89.0444,"dy":0.0017,"dx":0.0017,"nx":28,"ny":28,"refTime":"2023-07-31T21:00:00:Z","depth":0,"parameterNumber":3,"parameterNumberName":"V-component_of_WINDS"},"data":[0,0,0,0,0,0,0,0,0,0,0,0,0,0,0,0,0,0,0,0,0,0,0,0,0,0,0,0,0,0,0,0,0,0,0,0,0,0,0,0,0,0,0,0,0,0,0,0,0,0,0,0,0,0,0,0,0,0,-1.6155,-1.6156,0,-1.6209,-1.621,-1.621,-1.62,-1.6199,-1.6199,-1.6198,-1.6253,-1.6255,-1.6258,0,0,0,0,0,0,0,0,0,0,0,0,0,-1.6044,-1.6046,-1.6155,-1.6156,-1.6157,-1.6209,-1.621,-1.6211,-1.6201,-1.6199,-1.6198,-1.6197,-1.6252,-1.6255,-1.6258,0,0,0,0,0,0,0,0,0,0,0,0,0,-1.6095,-1.6047,-1.6155,-1.6158,-1.6159,-1.6209,-1.621,-1.6211,-1.6201,-1.6199,-1.6198,-1.6197,-1.6251,-1.6255,-1.6258,-1.6309,0,0,-1.6269,-1.6271,0,0,0,0,0,0,0,0,-1.6092,-1.6099,-1.6157,-1.6158,-1.6159,-1.6197,-1.6191,-1.6244,-1.6201,-1.6185,-1.6198,-1.6196,-1.6236,-1.624,-1.6254,-1.6312,-1.6314,-1.627,-1.6272,-1.6273,-1.6274,0,0,0,0,0,0,0,-1.6089,-1.6097,-1.6177,-1.6158,-1.6159,-1.6157,-1.6162,-1.6201,-1.6218,-1.6186,-1.6186,-1.6192,-1.6236,-1.625,-1.6255,-1.6315,-1.627,-1.6273,-1.6275,-1.6276,-1.6419,-1.6421,0,0,0,0,0,0,-1.6084,-1.6094,-1.6175,-1.6178,-1.6121,-1.616,-1.6166,-1.6186,-1.6217,-1.6221,-1.6193,-1.6191,-1.6245,-1.6251,-1.6257,-1.6319,-1.6273,-1.6277,-1.6279,-1.6417,-1.6419,-1.6421,0,0,0,0,0,0,-1.6082,-1.6091,-1.6173,-1.6136,-1.6146,-1.6163,-1.6186,-1.6188,-1.6202,-1.6223,-1.6226,-1.6205,-1.6244,-1.6252,-1.6297,-1.6321,-1.6278,-1.6282,-1.6415,-1.6418,-1.642,-1.6443,0,0,0,0,0,0,-1.6079,-1.6091,-1.611,-1.6136,-1.6148,-1.6211,-1.6187,-1.619,-1.6208,-1.6206,-1.6234,-1.6238,-1.6243,-1.6291,-1.63,-1.6325,-1.6284,-1.6413,-1.6417,-1.6419,-1.644,-1.6446,-1.6451,0,0,0,0,0,-1.6075,-1.6114,-1.6111,-1.6121,-1.6172,-1.6213,-1.6219,-1.6225,-1.621,-1.623,-1.6243,-1.6237,-1.6317,-1.6296,-1.6306,-1.6332,-1.6412,-1.6416,-1.6419,-1.6438,-1.6445,-1.6451,0,0,0,0,0,0,-1.609,-1.6117,-1.6114,-1.6163,-1.6186,-1.6211,-1.6236,-1.6233,-1.626,-1.6257,-1.6263,-1.627,-1.6315,-1.6328,-1.6304,-1.6383,-1.6362,-1.6368,-1.6373,-1.638,-1.6385,-1.6381,-1.6287,0,0,0,0,0,-1.6099,-1.6129,-1.6152,-1.6193,-1.6204,-1.6218,-1.6236,-1.6239,-1.6262,-1.6272,-1.6288,-1.6311,-1.6342,-1.6362,-1.6391,-1.6442,-1.6449,-1.6465,-1.6471,-1.6475,-1.648,-1.6509,-1.6517,-1.6433,-1.6433,-1.6433,0,0,-1.6118,-1.6137,-1.6155,-1.6196,-1.6214,-1.6245,-1.6226,-1.626,-1.6284,-1.6277,-1.632,-1.6333,-1.636,-1.6408,-1.643,-1.642,-1.6504,-1.648,-1.6483,-1.6486,-1.6513,-1.6521,-1.6528,-1.6436,-1.6435,-1.6435,0,0,-1.6168,-1.6185,-1.6222,-1.624,-1.6267,-1.6276,-1.6285,-1.6311,-1.632,-1.6363,-1.6359,-1.6387,-1.644,-1.6459,-1.6475,-1.6535,-1.653,-1.6544,-1.6572,-1.66,-1.6606,-1.6612,-1.6634,-1.6641,-1.6549,-1.6549,-1.6549,0,-1.6188,-1.6235,-1.6241,-1.6276,-1.6294,-1.629,-1.6327,-1.6344,-1.638,-1.6393,-1.6381,-1.6447,-1.6465,-1.6518,-1.6532,-1.6546,-1.6556,-1.654,-1.6605,-1.6611,-1.6616,-1.6637,-1.6645,-1.655,-1.655,-1.655,-1.655,0,-1.6259,-1.6291,-1.6318,-1.6352,-1.6373,-1.6409,-1.6421,-1.6442,-1.6443,-1.6454,-1.6499,-1.652,-1.6553,-1.6566,-1.6568,-1.662,-1.6613,-1.6603,-1.6582,-1.6626,-1.6645,-1.6653,-1.6553,-1.6552,-1.6552,-1.6551,0,0,-1.6319,-1.6357,-1.6366,-1.6382,-1.6412,-1.6438,-1.6474,-1.6507,-1.6525,-1.655,-1.6581,-1.6625,-1.6617,-1.6636,-1.6639,-1.6664,-1.671,-1.6651,-1.6652,-1.6661,-1.677,-1.6777,-1.6786,-1.6707,-1.6709,-1.671,-1.6767,0,-1.6372,-1.6435,-1.6442,-1.6499,-1.6529,-1.6526,-1.6558,-1.658,-1.6591,-1.6619,-1.6632,-1.6663,-1.6649,-1.6661,-1.6685,-1.6699,-1.6732,-1.6695,-1.6736,-1.6737,-1.6729,-1.6796,-1.6803,-1.6856,-1.6775,-1.6776,-1.6777,0,-1.6443,-1.647,-1.6529,-1.6556,-1.6569,-1.6597,-1.6628,-1.6655,-1.668,-1.6687,-1.6709,-1.6709,-1.6747,-1.6725,-1.6777,-1.6752,-1.6769,-1.6779,-1.6781,-1.6785,-1.676,-1.6801,-1.6874,-1.6882,-1.6789,-1.6788,-1.6787,0,-1.6481,-1.6533,-1.6575,-1.6589,-1.6621,-1.6641,-1.6655,-1.6679,-1.6699,-1.6726,-1.6739,-1.6771,-1.6788,-1.6812,-1.6822,-1.6805,-1.6874,-1.6852,-1.6881,-1.688,-1.6895,-1.6894,-1.6971,-1.6906,-1.6906,-1.6906,-1.6906,0,-1.654,-1.6576,-1.6593,-1.6619,-1.666,-1.6668,-1.6709,-1.6722,-1.6744,-1.6773,-1.6772,-1.6799,-1.681,-1.684,-1.6847,-1.689,-1.6898,-1.6904,-1.6906,-1.6904,-1.6903,-1.6915,-1.6912,-1.6908,-1.6908,-1.6907,-1.6907,0,-1.6589,-1.6602,-1.6648,-1.6675,-1.6682,-1.6711,-1.6735,-1.676,-1.6771,-1.6808,-1.6817,-1.6835,-1.687,-1.6882,-1.6923,-1.6929,-1.6978,-1.6977,-1.6969,-1.697,-1.6997,-1.6995,-1.7085,-1.7097,-1.7024,-1.7025,-1.7025,0,-1.6626,-1.6654,-1.6684,-1.6703,-1.6718,-1.675,-1.677,-1.6779,-1.68,-1.6832,-1.6854,-1.6888,-1.6916,-1.6971,-1.6988,-1.7021,-1.702,-1.7049,-1.7025,-1.7022,-1.702,-1.7019,-1.7022,-1.7054,-1.7054,-1.7055,-1.7055,0,-1.6689,-1.6694,-1.6723,-1.6755,-1.6779,-1.6804,-1.6829,-1.6845,-1.6858,-1.6882,-1.6917,-1.6939,-1.6982,-1.7016,-1.7049,-1.7064,-1.7063,-1.7063,-1.7072,-1.707,-1.7065,-1.7068,-1.6982,-1.7061,-1.706,-1.706,-1.706,-1.706,-1.6733,-1.6758,-1.6784,-1.6816,-1.6836,-1.6859,-1.6884,-1.6899,-1.6929,-1.6964,-1.6968,-1.7007,-1.7032,-1.7077,-1.7094,-1.7124,-1.7116,-1.7128,-1.7131,-1.7133,-1.7136,-1.706,-1.713,-1.713,-1.713,-1.713,-1.7129,0,-1.6797,-1.6813,-1.6843,-1.6878,-1.6904,-1.69,-1.6927,-1.6949,-1.6982,-1.7006,-1.7034,-1.7075,-1.7109,-1.7129,-1.7162,-1.7183,-1.7183,-1.7191,-1.719,-1.7194,-1.7141,-1.713,-1.7191,-1.7191,-1.7191,-1.7191,-1.7191,-1.7191,-1.6833,-1.6875,-1.6884,-1.6936,-1.6952,-1.699,-1.7005,-1.7027,-1.7046,-1.7092,-1.712,-1.7133,-1.7156,-1.7191,-1.7222,-1.7227,-1.724,-1.7249,-1.7253,-1.7204,-1.7197,-1.7191,-1.7181,-1.7252,-1.7252,-1.7304,-1.7304,-1.7304]}]]